Dewpoint
55 55 55 55 55 55 55 54 55 54 53 53 53 53 52 52 53 52 53 52 52 51 51 51 51 51 51 50 50 50 50 49 50 50 50 50 49 50 50 49 49 49
55 55 55 54 54 54 54 54 54 53 53 53 53 52 52 51 51 52 52 51 52 51 51 51 51 50 50 49 49 49 48 48 47 51 49 48 49 49 47 47 48 47
54 54 54 54 53 53 53 53 52 52 52 52 52 52 52 53 51 51 52 51 49 50 49 49 50 50 49 49 49 48 48 47 47 48 50 48 48 47 46 45 46 46
53 53 53 53 53 52 53 52 53 53 53 52 52 52 53 53 51 49 48 50 47 47 48 48 48 49 49 49 49 48 48 47 47 48 46 46 48 46 45 45 46 44
52 53 53 53 53 53 53 52 52 51 50 50 50 52 51 48 47 46 45 45 45 45 45 45 46 47 48 48 48 47 48 46 45 45 44 44 44 44 44 44 43 43
52 51 52 52 52 51 51 51 51 51 50 50 50 50 48 45 44 43 44 42 42 43 43 44 45 46 47 47 47 46 46 45 44 43 43 43 42 43 43 43 42 42
51 51 51 51 51 51 50 50 50 50 50 50 49 47 45 45 44 42 41 42 41 43 42 43 44 44 46 46 45 45 45 44 43 43 42 42 43 42 42 42 42 41
50 50 50 50 50 50 50 50 50 50 49 47 44 44 43 42 41 42 41 41 41 41 42 43 43 44 44 45 45 44 44 45 43 42 42 42 41 41 41 42 41 40
50 50 51 51 50 49 48 48 48 47 47 44 44 43 42 41 40 40 41 41 41 42 42 42 42 42 43 43 44 43 42 42 43 42 41 41 40 40 40 41 40 41
50 50 50 50 50 50 49 49 48 46 44 42 41 41 40 40 39 40 40 40 41 41 41 41 41 41 41 42 43 44 42 41 41 41 40 40 40 40 39 40 40 40
49 49 49 49 48 48 47 47 46 46 45 43 43 43 42 41 41 40 39 40 41 40 40 40 40 40 40 41 42 43 43 41 41 40 40 40 40 40 43 39 40 40
48 48 48 48 47 46 46 45 45 44 43 43 41 40 40 41 40 40 40 39 40 40 40 39 39 39 39 40 40 42 43 42 41 41 40 40 39 39 39 39 39 40
48 47 47 47 47 47 46 44 44 43 42 42 42 41 40 40 40 40 40 39 40 40 40 40 39 39 38 39 39 40 42 42 40 40 40 40 39 39 39 39 39 41
47 47 46 47 46 45 45 44 44 44 44 43 42 40 40 39 39 40 40 39 40 40 40 41 39 38 38 38 39 39 42 42 40 40 40 39 39 38 39 38 40 41
46 45 45 44 44 43 43 43 43 43 43 43 42 40 40 38 39 39 39 39 39 39 39 39 39 39 39 39 39 39 41 42 40 39 40 39 38 37 38 38 39 40
45 45 44 43 43 43 43 43 43 43 43 42 41 40 39 39 39 39 38 38 38 38 38 38 38 39 39 39 39 39 39 41 41 40 39 39 38 37 37 38 39 40
43 42 42 42 43 42 43 44 44 44 43 43 43 40 39 39 38 37 37 36 36 36 37 38 38 38 38 37 37 39 40 40 41 40 39 38 38 37 37 38 39 39
42 42 42 42 42 42 42 42 43 43 43 43 43 42 40 39 38 37 37 36 36 35 35 36 36 39 36 37 37 37 39 41 42 40 40 39 38 37 37 38 38 39
41 41 41 41 41 42 43 42 43 43 42 42 42 42 41 40 39 39 37 37 35 34 35 35 35 37 36 37 37 37 38 42 42 39 39 39 38 37 37 37 36 37
40 40 40 41 41 41 41 41 41 42 42 43 43 43 42 40 38 38 38 38 37 35 34 34 34 37 36 36 36 37 38 41 42 40 39 39 39 38 38 37 35 34
40 40 40 40 40 40 41 41 41 41 42 42 42 42 41 39 38 38 38 37 36 35 34 33 35 36 35 35 36 37 39 41 39 41 40 39 39 38 37 36 34 34
40 40 40 40 40 40 41 41 40 40 40 41 41 41 41 42 42 40 37 35 35 34 33 32 34 35 35 35 36 37 39 41 40 39 40 40 40 39 38 36 35 33
39 40 40 40 40 40 39 39 39 40 40 41 40 39 39 39 39 40 40 38 37 35 34 33 33 35 35 35 35 37 37 37 37 37 38 38 39 39 38 37 38 38
40 40 40 40 39 39 40 40 40 40 40 40 38 37 37 37 38 38 38 39 36 35 35 34 34 36 35 35 35 36 37 35 35 35 35 36 37 37 38 37 37 39
40 40 39 39 40 40 40 39 39 40 41 40 38 37 37 37 38 36 37 37 37 38 42 36 35 36 35 35 35 36 37 35 34 32 33 34 36 36 35 34 34 37
40 40 40 40 40 40 40 40 41 40 40 39 38 37 37 37 37 36 36 36 37 37 38 36 35 34 36 35 35 35 36 37 35 32 33 34 34 38 35 34 34 34